Volver al catálogo

SCOUT G-1 R/B

ActivoPO
NORAD 18363·ROCKET BODY·🇺🇸 United States

Lanzado Sep 16, 1987 desde Vandenberg Space Force Base

Loading…

Próximos Pases (próximas 24 horas)

TLE

ActualizadoSource: Space-Track

Época: Sep 14, 2026, 01:29 UTC

1 18363U 87080C   26257.06230012  .00000048  00000-0  66699-4 0  9992
2 18363  90.3625  89.6099 0103441 195.7907 327.5579 13.44184166911782

Sigue SCOUT G-1 R/B en tiempo real con AllMySat

Download on the App Store